Regional Weather Roundup
Issued by NWS Raleigh/Durham, NC

Current Version | Previous Version | Text Only | Print | Product List | Glossary On
Versions: 1 2 3 4 5 6 7 8 9 10 11 12 13 14 15 16 17 18 19 20 21 22 23 24 25 26 27 28 29 30 31 32 33 34 35 36 37 38 39 40 41 42 43 44 45 46 47 48 49 50
000
ASUS42 KRAH 220410
RWRRAH
NORTH CAROLINA WEATHER ROUNDUP
NATIONAL WEATHER SERVICE RALEIGH NC
1100 PM EST SUN JAN 21 2018

NOTE: "FAIR" INDICATES FEW OR NO CLOUDS BELOW 12,000 FEET WITH NO
SIGNIFICANT WEATHER AND/OR OBSTRUCTIONS TO VISIBILITY.

NCZ001-053-055-056-065-067-220500-
WESTERN NORTH CAROLINA

CITY           SKY/WX    TMP DP  RH WIND       PRES   REMARKS
ASHEVILLE      FAIR      39  36  89 CALM      30.21S
JEFFERSON      FAIR      46  39  75 CALM      30.21S
MORGANTON      FAIR      41  40  96 CALM      30.24S
HICKORY        FAIR      52  40  63 S5        30.21R
RUTHERFORDTON  FAIR      49  41  75 CALM      30.22S
MOUNT AIRY     FAIR      49  42  76 CALM      30.22R
BOONE          FAIR      35  35 100 CALM      30.23S
$$

NCZ021-022-025-041-071-084-088-220500-
CENTRAL NORTH CAROLINA

CITY           SKY/WX    TMP DP  RH WIND       PRES   REMARKS
CHARLOTTE      FAIR      51  40  65 S7        30.22R
GREENSBORO     FAIR      48  41  76 S5        30.20S
WINSTON-SALEM  FAIR      52  41  66 CALM      30.22R
RALEIGH-DURHAM FAIR      45  40  82 CALM      30.22S
FORT BRAGG     FAIR      42  40  91 CALM      30.20F
FAYETTEVILLE   FAIR      48  42  80 CALM      30.22R
BURLINGTON     FAIR      40  38  93 CALM      30.20S
LAURINBURG     FAIR      43  39  86 CALM      30.23R
$$

NCZ011-015-027-028-043-044-047-080-103-220500-
NORTHEASTERN NORTH CAROLINA

CITY           SKY/WX    TMP DP  RH WIND       PRES   REMARKS
ROCKY MT-WILSO NOT AVBL
GREENVILLE     FAIR      43  37  81 CALM      30.23F
WASHINGTON     FAIR      42  38  86 CALM      30.23F
ELIZABETH CITY FAIR      42  41  96 CALM      30.24F
MANTEO         FAIR      39  36  89 CALM      30.24F
CAPE HATTERAS  NOT AVBL
$$

NCZ078-087-090-091-093-098-101-220500-
SOUTHEASTERN NORTH CAROLINA

CITY           SKY/WX    TMP DP  RH WIND       PRES   REMARKS
LUMBERTON      FAIR      44  40  85 CALM      30.22S
GOLDSBORO      FAIR      44  40  84 CALM      30.20F
KINSTON        FAIR      43  42  93 CALM      30.22F
KENANSVILLE    FAIR      41  39  93 CALM      30.23S
NEW BERN       FAIR      40  38  93 CALM      30.24S
CHERRY POINT   NOT AVBL
BEAUFORT       FAIR      39  39 100 CALM      30.24S
JACKSONVILLE   FAIR      42  40  92 CALM      30.22F
WILMINGTON     FAIR      41  38  89 CALM      30.23F
$$




USA.gov is the U.S. government's official web portal to all federal, state and local government web resources and services.